Home   Weather   Busan   Past weeks

Flag for South Korea Past Weather in Busan, South Korea — Yesterday and Last 2 Weeks

Now
36 °F

Clear.


Feels Like: 36 °F
Forecast: 39 / 55 °F
Wind: 2 mph from North

Location: Pusan / Kimhae International Airport

Current Time: Dec 4, 2016 at 2:45:00 am

Latest Report: Dec 4, 2016 at 2:00 am


Visibility: 10 mi

Pressure: 30.15 "Hg

Humidity: 87%

Dew Point: 32 °F

Location of BusanLocation

Past Weather in Busan — Graph

°F

Busan Temperature Yesterday

Maximum temperature yesterday: 57 °F (at 2:00 pm)
Minimum temperature yesterday: 32 °F (at 6:00 am)
Average temperature yesterday: 44 °F

High & Low Weather Summary for the Past Weeks

 TemperatureHumidityPressure
High66 °F (Nov 19, 3:00 pm)100% (Nov 20, 3:00 am)30.48 "Hg (Nov 20, 3:00 am)
Low30 °F (Nov 26, 6:00 am)29% (Dec 3, 3:00 pm)29.86 "Hg (Nov 19, 3:00 pm)
Average47 °F65%30.20 "Hg
* Reported Nov 19 1:00 am — Dec 4 1:00 am, Busan, Weather by CustomWeather, © 2016

Note: Actual official high and low records may vary slightly from our data, if they occured in-between our weather recording intervals... More about our weather records

Advertising

Busan Weather History for the Previous 24 Hours

Scroll right to see more
 ConditionsComfort  
Time TempWeatherWind HumidityBarometerVisibility
1:00 am
Sun, Dec 4
37 °FClear.2 mph75%30.15 "Hg10 mi
12:00 am37 °FClear.2 mph75%30.18 "Hg10 mi
11:00 pm
Sat, Dec 3
37 °FClear.1 mph81%30.21 "Hg10 mi
10:00 pm41 °FClear.3 mph76%30.21 "Hg10 mi
9:00 pm43 °FClear.1 mph57%30.21 "Hg10 mi
8:00 pm46 °FClear.1 mph66%30.24 "Hg10 mi
7:00 pm46 °FClear.1 mph71%30.24 "Hg10 mi
6:00 pm50 °FClear.3 mph54%30.24 "Hg10 mi
5:00 pm52 °FSunny.7 mph58%30.24 "Hg10 mi
4:00 pm55 °FSunny.2 mph36%30.24 "Hg10 mi
3:00 pm57 °FSunny.2 mph29%30.24 "Hg10 mi
2:00 pm57 °FSunny.1 mph31%30.24 "Hg10 mi
1:00 pm55 °FSunny.3 mph38%30.27 "Hg10 mi
12:00 pm52 °FSunny.6 mph41%30.30 "Hg10 mi
11:00 am48 °FSunny.6 mph46%30.33 "Hg10 mi
10:00 am43 °FSunny.3 mph46%30.33 "Hg10 mi
9:00 am37 °FSunny.3 mph60%30.36 "Hg10 mi
8:00 am34 °FSunny.5 mph65%30.36 "Hg10 mi
7:00 am34 °FClear.3 mph60%30.36 "Hg10 mi
6:00 am32 °FClear.3 mph69%30.33 "Hg10 mi
5:00 am34 °FClear.3 mph70%30.33 "Hg10 mi
4:00 am34 °FClear.3 mph60%30.33 "Hg10 mi
3:00 am37 °FClear.1 mph48%30.36 "Hg10 mi
2:00 am36 °FClear.5 mph60%30.33 "Hg10 mi
Weather by CustomWeather, © 2016

See weather overviewHow to use our weather pages